New Delhi, India

2:07 PM IST on May 28, 2017 (GMT +0530)
Indira Gandhi International

Weather History for VIDP - December, 2012

Change the Weather History Date:

Monday, December 24, 2012

  Actual Average Record
Temperature  
Mean Temperature 53 °F -  
Max Temperature 60 °F 66 °F 84 °F (2007)
Min Temperature 46 °F 45 °F 32 °F (2003)
Degree Days  
Heating Degree Days 12    
Growing Degree Days 3 (Base 50)    
Moisture  
Dew Point 49 °F    
Average Humidity 93    
Maximum Humidity 100    
Minimum Humidity 67    
Precipitation  
Precipitation 0.00 in - - ()
Sea Level Pressure  
Sea Level Pressure 30.02 in    
Wind  
Wind Speed 2 mph ()    
Max Wind Speed 7 mph    
Max Gust Speed -    
Visibility 0.4 miles    
Events Fog    
Averages and records for this station are not official NWS values.
T = Trace of Precipitation, MM = Missing Value Source: Averaged Metar Reports

Daily Weather History Graph

Daily Weather History Graph

Search for Another Location

Airport or City:

Trip Planner

Search our weather history database for the weather conditions in past years. The results will help you decide how hot, cold, wet, or windy it might be!

Date:

Astronomy

Dec. 24, 2012 Rise Set
Actual Time 7:11 AM IST 5:31 PM IST
Civil Twilight 6:45 AM IST 5:56 PM IST
Nautical Twilight 6:15 AM IST 6:26 PM IST
Astronomical Twilight 5:47 AM IST 6:55 PM IST
Moon 2:34 PM IST (12/24) 3:32 AM IST (12/24)
Length of Visible Light 11h 11m
Length of Day
10h 19m
Waxing Gibbous, 85% of the Moon is Illuminated
Dec 24
Waxing Gibbous
Dec 28
Full
Jan 5
Last Quarter
Jan 12
New
Jan 19
First Quarter

Hourly Weather History & Observations

Time (IST) Temp. Windchill Dew Point Humidity Pressure Visibility Wind Dir Wind Speed Gust Speed Precip Events Conditions
12:00 AM 50.0 °F - 50.0 °F 100% 30.06 in - East 4.6 mph - N/A Fog Fog
12:30 AM 50.0 °F - 50.0 °F 100% 30.06 in - SE 2.3 mph - N/A Fog Fog
1:00 AM 48.2 °F - 48.2 °F 100% 30.06 in - East 3.5 mph - N/A Fog Fog
1:30 AM 48.2 °F - 48.2 °F 100% 30.06 in - East 2.3 mph - N/A Fog Fog
2:00 AM 48.2 °F - 48.2 °F 100% 30.06 in - Calm Calm - N/A Fog Fog
2:30 AM 48.2 °F - 48.2 °F 100% 30.06 in - Calm Calm - N/A Fog Fog
3:00 AM 48.2 °F - 48.2 °F 100% 30.04 in - Calm Calm - N/A Fog Fog
3:30 AM 46.4 °F - 46.4 °F 100% 30.04 in - Calm Calm - N/A Fog Fog
4:00 AM 46.4 °F - 46.4 °F 100% 30.01 in - Calm Calm - N/A Fog Fog
4:30 AM 46.4 °F - 46.4 °F 100% 30.01 in - Calm Calm - N/A Fog Fog
5:00 AM 46.4 °F - 46.4 °F 100% 30.01 in - Calm Calm - N/A Fog Fog
5:30 AM 46.4 °F - 46.4 °F 100% 30.01 in - Calm Calm - N/A Fog Fog
6:00 AM 46.4 °F - 46.4 °F 100% 30.01 in - Calm Calm - N/A Fog Fog
6:30 AM 46.4 °F - 46.4 °F 100% 30.04 in - Calm Calm - N/A Fog Fog
7:00 AM 46.4 °F - 46.4 °F 100% 30.04 in - Calm Calm - N/A Fog Fog
7:30 AM 46.4 °F - 46.4 °F 100% 30.06 in - Calm Calm - N/A Fog Fog
8:00 AM 46.4 °F - 46.4 °F 100% 30.06 in - Calm Calm - N/A Fog Fog
8:30 AM 46.4 °F - 46.4 °F 100% 30.06 in - Calm Calm - N/A Fog Fog
9:00 AM 46.4 °F - 46.4 °F 100% 30.06 in - Calm Calm - N/A Fog Fog
9:30 AM 46.4 °F - 46.4 °F 100% 30.09 in 0.0 mi Calm Calm - N/A Fog Fog
10:00 AM 46.4 °F 44.3 °F 46.4 °F 100% 30.09 in 0.1 mi WNW 4.6 mph - N/A Fog Fog
10:30 AM 48.2 °F - 48.2 °F 100% 30.09 in 0.1 mi West 4.6 mph - N/A Fog Fog
11:00 AM 48.2 °F - 48.2 °F 100% 30.09 in 0.2 mi West 4.6 mph - N/A Fog Fog
11:30 AM 48.2 °F - 48.2 °F 100% 30.06 in 0.3 mi SW 4.6 mph - N/A Fog Fog
12:00 PM 51.8 °F - 51.8 °F 100% 30.06 in 0.5 mi West 4.6 mph - N/A Fog Shallow Fog
12:30 PM 51.8 °F - 51.8 °F 100% 30.04 in 0.6 mi West 4.6 mph - N/A Fog Shallow Fog
1:00 PM 55.4 °F - 50.0 °F 82% 30.01 in 0.7 mi West 4.6 mph - N/A   Smoke
1:30 PM 57.2 °F - 50.0 °F 77% 30.01 in 0.7 mi WNW 6.9 mph - N/A   Smoke
2:00 PM 59.0 °F - 50.0 °F 72% 30.01 in 0.8 mi West 5.8 mph - N/A   Smoke
2:30 PM 60.8 °F - 50.0 °F 68% 29.98 in 0.7 mi West 4.6 mph - N/A   Smoke
3:00 PM 60.8 °F - 50.0 °F 68% 29.98 in 0.7 mi West 3.5 mph - N/A   Smoke
3:30 PM 60.8 °F - 50.0 °F 68% 29.95 in 0.6 mi WNW 5.8 mph - N/A   Smoke
4:00 PM 60.8 °F - 50.0 °F 68% 29.95 in 0.6 mi West 5.8 mph - N/A   Smoke
4:30 PM 60.8 °F - 50.0 °F 68% 29.95 in 0.6 mi West 5.8 mph - N/A   Smoke
5:00 PM 59.0 °F - 48.2 °F 67% 29.95 in 0.6 mi West 5.8 mph - N/A   Smoke
5:30 PM 57.2 °F - 50.0 °F 77% 29.95 in 0.6 mi West 5.8 mph - N/A   Mist
6:00 PM 55.4 °F - 50.0 °F 82% 29.95 in 0.6 mi West 4.6 mph - N/A   Mist
6:30 PM 53.6 °F - 51.8 °F 94% 29.95 in 0.6 mi West 4.6 mph - N/A Fog Shallow Fog
7:00 PM 53.6 °F - 51.8 °F 94% 29.98 in 0.6 mi West 3.5 mph - N/A Fog Shallow Fog
7:30 PM 51.8 °F - 50.0 °F 94% 29.98 in 0.6 mi West 3.5 mph - N/A Fog Shallow Fog
8:30 PM 50.0 °F - 50.0 °F 100% 30.01 in 0.3 mi Calm Calm - N/A Fog Fog
9:00 PM 50.0 °F - 50.0 °F 100% 30.01 in 0.2 mi Calm Calm - N/A Fog Fog
9:30 PM 48.2 °F - 48.2 °F 100% 30.01 in 0.2 mi Calm Calm - N/A Fog Fog
10:00 PM 48.2 °F - 48.2 °F 100% 30.01 in 0.2 mi Calm Calm - N/A Fog Fog
10:30 PM 48.2 °F - 48.2 °F 100% 30.01 in 0.1 mi Calm Calm - N/A Fog Fog
11:00 PM 48.2 °F - 48.2 °F 100% 30.01 in 0.1 mi Calm Calm - N/A Fog Fog